Location: Poughquag
(41.6090°N, 73.6820°W)
Time: 01:33:33
(UTC-04:00)

Tiangong - Visible Passes

Search period start: 08 June 2023 00:00
Search period end: 18 June 2023 00:00
Orbit: 386 x 390 km, 41.5° (Epoch: 07 June)

Date Brightness Start Highest point End Pass type
(mag) Time Alt. Az. Time Alt. Az. Time Alt. Az.
08 Jun -1.1 02:44:20 39° E 02:44:20 39° E 02:46:32 10° E visible
08 Jun -2.2 04:17:02 10° W 04:20:15 85° S 04:23:27 10° E visible
09 Jun -2.2 03:20:37 40° W 03:21:38 90° N 03:24:50 10° E visible
10 Jun -0.2 02:24:42 25° E 02:24:42 25° E 02:26:10 10° E visible
10 Jun -2.2 03:56:59 12° W 03:59:52 69° SSW 04:03:03 10° ESE visible
11 Jun -2.3 03:01:14 83° SSE 03:01:14 83° SSE 03:04:23 10° E visible
11 Jun -1.4 04:35:01 10° W 04:37:55 33° SSW 04:40:50 10° SE visible
12 Jun -2.0 03:38:07 31° WSW 03:39:17 48° SSW 03:42:22 10° ESE visible
13 Jun 0.4 02:43:11 14° ESE 02:43:11 14° ESE 02:43:42 10° ESE visible
13 Jun -0.7 04:15:33 15° WSW 04:17:07 20° SSW 04:19:34 10° SSE visible
14 Jun -0.4 21:27:28 10° S 21:29:29 16° SSE 21:30:18 15° SE visible
15 Jun -1.7 22:04:09 10° SW 22:07:09 39° SSE 22:08:04 31° ESE visible
16 Jun -1.0 21:05:35 10° SSW 21:08:18 26° SSE 21:11:02 10° E visible
16 Jun -2.3 22:41:47 10° WSW 22:44:57 77° S 22:45:01 76° SSE visible
17 Jun -2.1 21:42:51 10° WSW 21:45:59 59° SSE 21:49:07 10° E visible
17 Jun -0.6 23:19:39 10° W 23:21:25 30° W 23:21:25 30° W visible
